Regional Weather Roundup
Issued by NWS Wakefield, VA

Home | Current Version | Previous Version | Graphics & Text | Print | Product List | Glossary On
Versions: 1 2 3 4 5 6 7 8 9 10 11 12 13 14 15 16 17 18 19 20 21 22 23 24 25 26 27 28 29 30
000
ASUS41 KAKQ 290910
RWRAKQ

REGIONAL WEATHER ROUNDUP
NATIONAL WEATHER SERVICE WAKEFIELD VA
500 AM EDT WED OCT 29 2014

Note: "fair" indicates few or no clouds below 12,000 feet with no
significant weather and/or obstructions to visibility. * = Denotes
station may not report precipitation (e.g., rain,snow,etc.),
thunder or fog.

VAZ042-051-052>054-056-291000-
NORTHERN VIRGINIA

CITY           SKY/WX    TMP DP  RH WIND       PRES   REMARKS
WASH NATIONAL  MOCLDY    67  58  72 SW3       29.91S
DULLES         MOCLDY    61  56  83 S3        29.91S
FORT BELVOIR   MOCLDY    58  56  94 CALM      29.91S
QUANTICO       MOCLDY    65  58  78 S8        29.92S
FREDERICKSBRG* CLOUDY    67  59  74 S7        29.91S
STAFFORD*      CLOUDY    62  56  81 CALM      29.96R
WARRENTON      MOCLDY    64  61  91 CALM      29.90S
CULPEPER*      CLOUDY    63  57  82 SW3       29.91S
MANASSAS*      CLOUDY    57  55  94 CALM      29.91R
LEESBURG*      CLOUDY    59  57  94 W5        29.92S
WINCHESTER     CLOUDY    64  46  52 NW7       29.93R
FRONT ROYAL*   CLOUDY    61  50  67 CALM      29.91S
LURAY*         CLOUDY    64  54  68 SW6       29.93S
$$

VAZ048-049-060>072-079>083-291000-
CENTRAL AND SOUTH CENTRAL VIRGINIA...AND NORTH CENTRAL NORTH CAROLINA

CITY           SKY/WX    TMP DP  RH WIND       PRES   REMARKS
RICHMOND       MOCLDY    63  58  83 S7        29.96S
CHESTERFIELD*  PTSUNNY   63  50  63 S6        29.97F
PETERSBURG*    MOCLDY    59  57  94 CALM      29.98S
HANOVER        MOCLDY    64  58  80 S7        29.96F
TAPPAHANNOCK*  MOCLDY    64  55  72 S5        29.96S
CHARLOTTSVILLE CLOUDY    62  54  74 S8        29.92S
ORANGE*        CLOUDY    63  57  82 S5        29.94R
LOUISA*        CLOUDY    64  57  77 SW3       29.93S
FARMVILLE*     CLOUDY    63  57  82 SW5       29.94S
CREWE*         PTSUNNY   62  57  83 S5        29.97S
FORT PICKETT*  PTSUNNY   62  58  87 SW7       29.98R
LUNENBURG*     PTSUNNY   62  58  88 S5        29.98S
SOUTH HILL*    MOCLDY    61  61 100 S5        30.04S
LAWRENCEVILLE* PTSUNNY   61  59  92 S5        29.99R
ROANOKE RAPIDS PTSUNNY   59  57  94 CALM      30.01S
RALEIGH        MOCLDY    62  56  80 SW6       30.03S
$$

VAZ088>098-291000-
SOUTHEAST VIRGINIA

CITY           SKY/WX    TMP DP  RH WIND       PRES   REMARKS
NORFOLK        CLOUDY    64  58  80 SW13      30.00S
VIRGINIA BEACH CLOUDY    66  58  75 SW9       30.01R
NORFOLK NAVAL  MOCLDY    67  59  75 S8        30.01S
WEST POINT*    MOCLDY    68  58  71 SW5       29.98S
NEWPORT NEWS   MOCLDY    67  59  75 SW10      29.99S
LANGLEY AFB    MOCLDY    65  62  92 S10       29.99S
FORT EUSTIS    MOCLDY    64  64 100 S5        29.98R
WILLIAMSBURG*  MOCLDY    66  61  82 SW3       29.99S
HR EXEC AP*    CLOUDY    61  57  88 S6        30.03S
FRANKLIN*      PTCLDY    61  61 100 S6        30.01S
WAKEFIELD      PTCLDY    64  58  80 SW5       29.99S
$$

VAZ020-022-025-037-045-291000-
WEST CENTRAL AND SOUTHWEST VIRGINIA

CITY           SKY/WX    TMP DP  RH WIND       PRES   REMARKS
STAUNTON*      CLOUDY    56  49  79 CALM      29.96S
HOT SPRINGS VA CLOUDY    56  49  80 W10       30.00F
LYNCHBURG      CLOUDY    59  54  83 CALM      29.98S
DANVILLE       MOCLDY    59  55  87 SW3       29.99S
SOUTH BOSTON*  NOT AVBL
MARTINSVILLE   CLOUDY    55  55 100 CALM      30.01S
ROANOKE        CLOUDY    64  53  67 W7        29.99S
BLACKSBURG     CLOUDY    54  54 100 CALM      30.02F
DUBLIN*        CLOUDY    57  55  92 CALM      30.02F
MARION*        CLOUDY    61  55  79 W10       30.05S
HILLSVILLE*    CLOUDY    57  52  82 S3        30.04S
RICHLANDS*     HVY RAIN  52  50  92 NW6       30.06S
WISE*          DRIZZLE   45  45 100 NW5       30.09S
ABINGDON*      LGT RAIN  60  57  91 CALM      30.03S
$$

MDZ021>025-VAZ099-100-291000-
SOUTHERN MARYLAND AND THE DELMARVA PENINSULA

CITY           SKY/WX    TMP DP  RH WIND       PRES   REMARKS
PATUXENT RIVER MOCLDY    66  57  72 S9        29.92F
BAY BRIDGE APT   N/A     64  57  77 SE6       29.91S
LEONARDTOWN    CLOUDY    64  55  72 SW6       29.94F
DOVER          PTCLDY    66  60  80 S13       29.89S
GEORGETOWN     MOCLDY    66  58  75 SW8       29.95R
EASTON         MOCLDY    66  61  84 CALM      29.95S
CAMBRIDGE      MOCLDY    63  57  82 SE5       29.92F
SALISBURY      PTCLDY    66  60  81 SW9       29.95S
OCEAN CITY     FAIR      65  60  84 SW9       29.96S
WALLOPS ISLAND MOCLDY    63  60  90 SW8       29.98R
ACCOMACK*      MOCLDY    68  57  68 SW9       29.98S
$$

NCZ012>017-030>032-291000-
EASTERN NORTH CAROLINA

CITY           SKY/WX    TMP DP  RH WIND       PRES   REMARKS
ELIZABETH CITY CLOUDY    66  60  81 S9        30.04R
AHOSKIE*       NOT AVBL
EDENTON*       CLOUDY    62  60  93 S5        30.04S
CURRITUCK*     CLOUDY    64  58  81 S3        30.04R
KILL DEVIL HLS CLOUDY    65  63  95 SW6       30.04S
MANTEO         CLOUDY    64  63  94 S8        30.05S
CAPE HATTERAS  CLOUDY    71  67  87 W8        30.07S
TARBORO*       CLOUDY    64  58  81 S6        30.03S
GOLDSBORO      CLOUDY    65  64  97 SW5       30.03R
WASHINGTON     MOCLDY    62  60  91 CALM      30.05S
GREENVILLE     CLOUDY    63  59  88 SW7       30.05F
NEW BERN       MOCLDY    65  62  90 SW5       30.07S
WILMINGTON     MOCLDY    65  64  97 SW7       30.07R
$$

VAZ048-291000-
ELSEWHERE

CITY           SKY/WX    TMP DP  RH WIND       PRES   REMARKS
HARRISBURG PA  CLOUDY    60  55  83 NW7       29.89R
BALTIMORE      PTCLDY    62  57  83 W3        29.91R
ANNAPOLIS      MOCLDY    62  59  90 SE5       29.90S
ANDREWS AFB    PTCLDY    63  58  84 SW8       29.90F
WILMINGTON DE  PTCLDY    63  58  83 SW8       29.90S
PHILADELPHIA   PTCLDY    61  55  81 CALM      29.90R
WILDWOOD NJ*   MOCLDY    66  55  68 SW13      29.94S
ATLANTIC CITY  MOCLDY    66  58  75 SW8       29.91F
HENDERSON NC   MOCLDY    59  56  89 SW7       30.00F
GREENSBORO     MOCLDY    61  55  81 SW9       30.00S
ROCKY MOUNT    CLOUDY    63  58  83 S6        30.03R
FAYETTEVILLE   CLOUDY    63  58  83 SW8       30.04S
CHARLOTTE      CLOUDY    61  54  77 SW7       30.03F
$$

VAZ100-291000-
MARINE

STATION/POSITION TIME  TEMP    WIND        PRES    WAVE   SWELL
                       AIR SEA DIR/SP/G            HT/PER HT/PER
                 (UTC) (F)     (DEG/KT/KT) (MB)    (FT/S) (FT/S)
44066 TX TWR #4  0900   67 65  220/ 17/ 21 1013.8F   6/ 6
CAPE MAY NJ      0900   66 64  200/  8/ 12 1013.0R
LEWES DE         0900   67 61  220/  7/ 11 1013.3S
15NM E FENWICK I 0900   66 64              1014.0F   3/ 5
OCEAN-CITY-INLET 0900   65 62  230/ 12/ 14 1014.0S
WACHAPREAGUE VA  0900   63 63  220/  7/  9 1015.2F
THOMAS POINT MD  0900   64 62  170/ 14/ 14 1013.6S
GOOSES REEF MD   0900   65     210/ 12/ 14 1013.3S
COVE POINT MD    0900   67     210/ 12/ 15 1013.0F
SOLOMONS ISLAND  0900      63                N/A
BISHOPS HEAD MD  0900   65 61  190/ 12/ 14 1013.4S
PINEY POINT MD   0900          230/ 13/ 14   N/A
POTOMAC MD       0900   67     230/ 12/ 14 1013.2R
CAMBRIDGE MD     0900   65 60  180/  5/  9 1012.9F
LEWISETTA VA     0900   67 62  230/  9/ 11 1013.5S
RAPPAHANNOCK LGT 0900          190/ 14/ 15 1015.5S
STINGRAY PT      0900   67     220/ 12/ 14 1015.3S
YORK RVR RNG VA  0900   67     230/ 15/ 18 1014.5S
YORKTOWN VA      0900   66 64  220/  7/  8 1015.0R
JAMESTOWN VA     0900   65     230/ 10/ 12   N/A
DOMINION TERM VA 0900   65     210/  8/  9 1015.7F
KIPTOPEKE VA     0900      67  200/ 10/ 11   N/A
CHES BAY BRIDGE  0900   67 64  200/ 17/ 19 1015.0R
CHESAPEAKE LGHT  0800   66     210/ 20/ 21 1016.2F
WILLOUBY STN VA  0900   66     230/ 13/ 14 1014.4S
S CRANEY ISL VA  0900          190/  7/ 10 1015.6S
CAPE HENRY BUOY  0900      65                N/A     2/ 4
1ST LANDING BUOY 0900   68     220/ 16/ 17 1015.5S
CAPE CHARLES BUO 0900      65                N/A     2/ 4
64NM E OF VA BCH 0900   69 67  210/ 14/ 16 1016.6F   3/ 4
DUCK PIER NC     0900   67 67  210/ 12/ 14 1016.4F
44100 DUCK FRF   0900      67                N/A     2/ 4
OREGON INLET NC  0900   67 67  200/ 10/ 11 1017.7S
HATTERAS NC      0900   72 71  240/  7/  9 1018.5S
DIAMOND SHLS NC  0900   76     240/ 16/ 17 1018.0F   3/ 4
CAPE LOOKOUT NC  0800   71     240/  7/  9 1018.1F
$$



USA.gov is the U.S. government's official web portal to all federal, state and local government web resources and services.